Skip Page Navigation
NASA JPL Caltech
NASA Logo - Jet Propulsion Laboratory + View the NASA Portal
+ Near-Earth Object (NEO) Program
Search JPL
JPL Home Earth Solar System Stars & Galaxies Technology
JPL Solar System Dynamics
BODIES ORBITS EPHEMERIDES TOOLS PHYSICAL DATA DISCOVERY FAQ SITE MAP
JPL Small-Body Database Browser
Search: [ help ]  
5416 Estremadoyro (1978 VE5)
Classification: Main-belt Asteroid          SPK-ID: 2005416
Ephemeris | Orbit Diagram | Orbital Elements | Physical Parameters | Discovery Circumstances ]

[ show orbit diagram ]
Orbital Elements at Epoch 2456800.5 (2014-May-23.0) TDB
Reference: JPL 6 (heliocentric ecliptic J2000)
 Element Value Uncertainty (1-sigma)   Units 
e .2371515764519232 7.6378e-08  
a 2.781152904242371 2.4818e-08 AU
q 2.121598108647448 2.1801e-07 AU
i 8.394169833599468 7.3071e-06 deg
node 66.73197650446207 5.2805e-05 deg
peri 285.5785827338151 5.441e-05 deg
M 283.2207998594287 1.903e-05 deg
tp 2457161.807360709546
(2015-May-19.30736071)
9.2503e-05 JED
period 1694.087065472115
4.64
2.2676e-05
6.208e-08
d
yr
n .2125038360408435 2.8445e-09 deg/d
Q 3.440707699837294 3.0704e-08 AU
  Orbit Determination Parameters
   # obs. used (total)      1021  
   data-arc span      16139 days (44.19 yr)  
   first obs. used      1970-01-04  
   last obs. used      2014-03-13  
   planetary ephem.      DE431  
   SB-pert. ephem.      SB431-BIG16  
   condition code      0  
   fit RMS      .54738  
   data source      ORB  
   producer      Otto Matic  
   solution date      2014-Mar-22 10:46:37  

Additional Information
 Earth MOID = 1.13404 AU 
 T_jup = 3.276 
[ show covariance matrix ]

Ephemeris | Orbit Diagram | Orbital Elements | Physical Parameters | Discovery Circumstances ]

Physical Parameter Table
Parameter Symbol Value Units Sigma Reference Notes
absolute magnitude H 12.7 mag n/a MPO265986  
diameter diameter 18.28 km 1.5 IRAS-A-FPA-3-RDR-IMPS-V6.0 IRAS observations used: 2
geometric albedo albedo 0.0697   0.013 IRAS-A-FPA-3-RDR-IMPS-V6.0 IRAS observations used: 2
SMASSII spectral type spec_B C   n/a EAR-A-5-DDR-TAXONOMY-V4.0 based on a high-resolution spectrum by Xu et al. (1995) or Bus and Binzel (2002)

5416 Estremadoyro           Discovered 1978 Nov. 7 by E. F. Helin and S. J. Bus at Palomar.
Peruvian astronomer Víctor Antolí Estremadoyro Robles (1913-2003), professor of astronomy and a structural engineer, founded the Peruvian Association of Astronomy (1946) and the Iberoamerican League of Astronomy in 1958. The latter association unites institutions in 26 different countries.
NOTE: some special characters may not display properly (any characters within {} are an attempt to place the proper accent above a character)
Reference: 20050919/MPCPages.arcLast Updated: 2005-09-26

Alternate Designations
 1978 VE5 = 1970 AG = 1987 SJ27 
Ephemeris | Orbit Diagram | Orbital Elements | Physical Parameters | Discovery Circumstances ]
ABOUT SSD CREDITS/AWARDS PRIVACY/COPYRIGHT GLOSSARY LINKS
FirstGov 2014-Apr-16 16:05 UT
(server date/time)  
NASA Home Page
Site Manager:   Donald K. Yeomans
Webmaster  Alan B. Chamberlin